Regional Weather Roundup
Issued by NWS

Home | Current Version | Previous Version | Graphics & Text | Print | Product List | Glossary Off
Versions: 1 2 3 4 5 6 7 8 9 10 11 12 13 14 15 16 17 18 19 20 21 22 23 24 25 26 27 28 29 30 31 32 33 34 35 36 37 38 39 40 41 42 43 44 45 46 47 48 49 50

000
ASUS43 KMKX 190021
RWRWI

WISCONSIN REGIONAL WEATHER ROUNDUP
NATIONAL WEATHER SERVICE MILWAUKEE/SULLIVAN WI
700 PM CDT WED OCT 18 2017

NOTE: "FAIR" INDICATES FEW OR NO CLOUDS BELOW 12,000 FEET WITH NO
SIGNIFICANT WEATHER AND/OR OBSTRUCTIONS TO VISIBILITY.

WIZ001-002-006>008-014>016-023>028-190100-
NORTHWEST WISCONSIN

CITY           SKY/WX    TMP DP  RH WIND       PRES   REMARKS
SUPERIOR ARPT  CLEAR     59  21  22 W10       29.79R
6HR MIN TEMP:  59; 6HR MAX TEMP:  71;

ASHLAND        CLEAR     57  27  31 W8        29.77R
6HR MIN TEMP:  57; 6HR MAX TEMP:  72;

HAYWARD        CLEAR     62  20  19 VRB7G22   29.82R
6HR MIN TEMP:  62; 6HR MAX TEMP:  68;

SIREN          CLEAR     59  15  18 W10G16    29.87R
6HR MIN TEMP:  59; 6HR MAX TEMP:  70;

CUMBERLAND     CLEAR     57  27  30 W14       29.86R
RICE LAKE      CLEAR     60  35  40 W10       29.87R
6HR MIN TEMP:  60; 6HR MAX TEMP:  69;

CHETEK         CLEAR     61  43  51 W9G18     29.86R
6HR MIN TEMP:  60; 6HR MAX TEMP:  69;

LADYSMITH      CLEAR     60  43  52 SW7       29.85R
6HR MIN TEMP:  60; 6HR MAX TEMP:  70;

EAU CLAIRE     CLEAR     62  43  49 SW10      29.85R
6HR MIN TEMP:  62; 6HR MAX TEMP:  72;

MENOMONIE      CLEAR     63  39  41 SW14G20   29.87R
6HR MIN TEMP:  61; 6HR MAX TEMP:  71; 6HR PCP:  0.04;

NEW RICHMOND   CLEAR     59  25  27 W10       29.90R
6HR MIN TEMP:  59; 6HR MAX TEMP:  69;

OSCEOLA        CLOUDY    59  22  23 W16       29.93R
6HR MIN TEMP:  59; 6HR MAX TEMP:  70;

$$

WIZ003>005-009-010-017-018-190100-
NORTH CENTRAL WISCONSIN

CITY           SKY/WX    TMP DP  RH WIND       PRES   REMARKS
MANITOWISH WTR CLEAR     59  44  56 SW9       29.79R
6HR MIN TEMP:  59; 6HR MAX TEMP:  70;

ARBOR VITAE    CLEAR     62  47  58 W12       29.79R
6HR MIN TEMP:  62; 6HR MAX TEMP:  72;

WOODRUFF       CLEAR     62  47  58 W12       29.79R
6HR MIN TEMP:  62; 6HR MAX TEMP:  72;

RHINELANDER    CLEAR     63  48  58 SW12      29.80R
6HR MIN TEMP:  63; 6HR MAX TEMP:  70;

EAGLE RIVER    CLEAR     60  44  55 SW9       29.77R
6HR MIN TEMP:  60; 6HR MAX TEMP:  70;

LAND O LAKES   CLEAR     63  45  51 SW9G17    29.78R
6HR MIN TEMP:  63; 6HR MAX TEMP:  71;

PHILLIPS       CLEAR     61  44  53 SW12      29.81R
6HR MIN TEMP:  61; 6HR MAX TEMP:  71;

TOMAHAWK       CLEAR     63  46  54 SW3       29.82R
6HR MIN TEMP:  63; 6HR MAX TEMP:  70;

MEDFORD        CLEAR     61  47  58 SW9       29.85R
6HR MIN TEMP:  61; 6HR MAX TEMP:  70;

MERRILL        CLEAR     63  49  60 SW12      29.83R
6HR MIN TEMP:  63; 6HR MAX TEMP:  72;

$$

WIZ029-030-035-036-043>047-190100-
CENTRAL WISCONSIN

CITY           SKY/WX    TMP DP  RH WIND       PRES   REMARKS
WAUSAU         CLEAR     65  47  52 SW12      29.82R
6HR MIN TEMP:  64; 6HR MAX TEMP:  71; 6HR PCP: TRACE;

MOSINEE        PTCLDY    63  48  59 SW10      29.86R
MARSHFIELD     CLOUDY    63  47  55 SW12      29.85R
6HR MIN TEMP:  63; 6HR MAX TEMP:  73;

STEVENS POINT  CLEAR     63  46  55 SW10      29.87R
6HR MIN TEMP:  63; 6HR MAX TEMP:  71;

WAUPACA        CLEAR     66  46  47 S8        29.88R
6HR MIN TEMP:  66; 6HR MAX TEMP:  74;

WAUTOMA        CLEAR     65  47  52 SW7       29.91R
6HR MIN TEMP:  65; 6HR MAX TEMP:  73;

WISC RAPIDS    CLEAR     64  48  56 SW9       29.88R
6HR MIN TEMP:  63; 6HR MAX TEMP:  73;

CAMP DOUGLAS   PTCLDY    68  48  49 SW9       29.89R
$$

WIZ011>013-019>022-031-037>040-048>050-190100-
NORTHEAST WISCONSIN

CITY           SKY/WX    TMP DP  RH WIND       PRES   REMARKS
ANTIGO         CLEAR     62  47  56 SW12G21   29.83S
6HR MIN TEMP:  62; 6HR MAX TEMP:  69;

SHAWANO        CLEAR     68  46  45 SW8       29.84R
6HR MIN TEMP:  68; 6HR MAX TEMP:  74;

OCONTO         PTCLDY    66  46  47 SW9G16    29.84R
6HR MIN TEMP:  66; 6HR MAX TEMP:  72;

STURGEON BAY   MOCLDY    58  50  75 S12       29.86R
6HR MIN TEMP:  58; 6HR MAX TEMP:  65;

GREEN BAY      PTCLDY    65  48  54 S13       29.87R
6HR MIN TEMP:  65; 6HR MAX TEMP:  71;

MANITOWOC      CLOUDY    58  50  75 S6        29.91R
6HR MIN TEMP:  57; 6HR MAX TEMP:  64;

APPLETON       PTCLDY    64  41  42 SW15G21   29.87R
CLINTONVILLE   CLEAR     64  45  48 SW10      29.86R
OSHKOSH        PTCLDY    66  43  43 SW15G22   29.90R
6HR MIN TEMP:  65; 6HR MAX TEMP:  71;

$$

WIZ032>034-041-042-053>061-190100-
SOUTHWEST WISCONSIN

CITY           SKY/WX    TMP DP  RH WIND       PRES   REMARKS
LA CROSSE      CLEAR     68  49  50 W8        29.90R
6HR MIN TEMP:  68; 6HR MAX TEMP:  77;

SPARTA         CLEAR     65  48  53 SW5       29.90S
6HR MIN TEMP:  65; 6HR MAX TEMP:  73;

VIROQUA        CLEAR     64  48  57 SW8       29.94R
6HR MIN TEMP:  64; 6HR MAX TEMP:  72;

BOSCOBEL       CLEAR     66  46  48 SW5       29.95R
6HR MIN TEMP:  66; 6HR MAX TEMP:  76;

PRAIRIE DU CHI CLEAR     67  45  45 CALM      29.95R
6HR MIN TEMP:  67; 6HR MAX TEMP:  74;

PLATTEVILLE    CLEAR     61  48  62 SW6       29.98R
6HR MIN TEMP:  61; 6HR MAX TEMP:  72;

$$

WIZ056-057-062-063-064-067-068-190100-
SOUTH CENTRAL WISCONSIN

CITY           SKY/WX    TMP DP  RH WIND       PRES   REMARKS
REEDSBURG      CLEAR     63  47  56 SW7       29.93R
6HR MIN TEMP:  63; 6HR MAX TEMP:  71;

BARABOO/DELLS  CLEAR     64  44  49 SW9G16    29.93R
6HR MIN TEMP:  63; 6HR MAX TEMP:  70;

LONE ROCK      CLEAR     66  48  52 SW6       29.94R
6HR MIN TEMP:  66; 6HR MAX TEMP:  73;

MINERAL POINT  CLEAR     63  46  55 SW6       29.97R
MADISON        MOCLDY    66  43  43 SW9       29.95R
6HR MIN TEMP:  66; 6HR MAX TEMP:  71;

MIDDLETON      PTCLDY    65  44  45 SW6       29.95R
6HR MIN TEMP:  65; 6HR MAX TEMP:  73;

WATERTOWN      PTCLDY    62  44  51 S7        29.94S
6HR MIN TEMP:  62; 6HR MAX TEMP:  72;

MONROE         PTCLDY    63  43  48 S12       29.96S
JANESVILLE     PTCLDY    66  41  39 S10       29.97R
$$

WIZ051-052-058>065-066-070>072-190100-
SOUTHEAST WISCONSIN

CITY           SKY/WX    TMP DP  RH WIND       PRES   REMARKS
MILWAUKEE      CLOUDY    67  43  41 S17G23    29.96F
6HR MIN TEMP:  67; 6HR MAX TEMP:  73;

WAUKESHA       CLEAR     64  39  39 S12G18    29.97F
MILWAUKEE/TIMM CLEAR     66  37  34 SW12      29.96F
RACINE         CLEAR     64  42  44 S10       29.99F
6HR MIN TEMP:  64; 6HR MAX TEMP:  71;

BURLINGTON     CLOUDY    61  45  54 S9        29.98F
6HR MIN TEMP:  61; 6HR MAX TEMP:  73;

KENOSHA        CLEAR     64  41  42 S12       29.99F
6HR MIN TEMP:  64; 6HR MAX TEMP:  71;

FOND DU LAC    MOCLDY    65  42  43 S10       29.92R
6HR MIN TEMP:  65; 6HR MAX TEMP:  72;

SHEBOYGAN      CLOUDY    64  44  48 S14       29.92R
6HR MIN TEMP:  64; 6HR MAX TEMP:  72;

WEST BEND      CLOUDY    63  41  45 SW10      29.94R
JUNEAU         PTCLDY    62  44  51 S10       29.95S
6HR MIN TEMP:  62; 6HR MAX TEMP:  71;

$$

LSZ147-162-190100-
LAKE SUPERIOR

STATION/POSITION TIME  TEMP    WIND        PRES    WAVE
                       AIR SEA DIR/SP/G            HT/PER
                 (UTC) (F)     (DEG/KT/KT) (MB)    (FT/S)
W MID LAKE BUOY  2350   58 53              1004.4R   5/ 6
DEVILS ISLAND    0000   59     260/ 20/ 24 1006.7R
PORT WING        0000          240/ 11/ 24 1008.5R
SAXON HARBOR     2340   65     250/  5/  7 1007.1R
$$

LMZ867-665-643>646-190100-
LAKE MICHIGAN

STATION/POSITION TIME  TEMP    WIND        PRES    WAVE
                       AIR SE



USA.gov is the U.S. government's official web portal to all federal, state and local government web resources and services.